User: anonymous   Login
Location: Dover
(39.1580°N, 75.5250°W)
Time: 16:22:39
(UTC-04:00)
Language:

Cosmos 1437 Rocket - Orbit

View from above orbital plane
View from above orbital plane
View from above satellite
View from above satellite

Ground track
Ground track

The orbit data is extracted from the following two-line orbital elements,

1 13771U 83003B   15149.49139214  .00001020  00000-0  63692-4 0  9999
2 13771 081.1566 146.7009 0027820 327.6893 032.2626 15.08327346760713
Epoch (UTC): 29 May 2015 11:47:36
Eccentricity: 0.0027820
inclination: 81.1566°
perigee height: 522 km
apogee height: 560 km
right ascension of ascending node: 146.7009°
argument of perigee: 327.6893°
revolutions per day: 15.08327346
mean anomaly at epoch: 32.2626°
orbit number at epoch: 76071

The dashed part of the orbit path shows where the satellite is in the earth's shadow,  

DLR